Content
SEND FEEDBACK

Daily
Averages
Monthly
Summary
Sweden

SKARA, SWEDEN


Home > Europe > Sweden
Elevation: 250 feet     Latitude: 58 29N     Longitude: 013 03E

WEATHER
 
SELECT A DAY
Number of Records: 84,679;   Date Range: 6/19/04 - 4/21/13
 
SHARE

PRINT THIS DATA

[ ← Previous Day ]
WEATHER ALMANAC - FEBRUARY 13, 2013
[ Next Day → ]
[ °C ]   °F
Weather ElementAverageHighLow
Temperature27 °F32 °F (2:20 pm)24.8 °F (8:50 am)
Dewpoint24 °F26.6 °F (2:20 pm)23 °F (7:20 am)
Humidity87.1 %93 % (12:20 am)74 % (5:00 pm)
Barometer30.30 in30.39 in (8:00 pm)30.15 in (12:20 am)
Wind Speed3.4 mph8.1 mph (12:20 am)
Weather ElementAverage
Visibility10.3 mi
Wind DirectionENE (58.6 °)

Weather ElementTotal
Precipitation---
Heating Degree Days36.6 (Base 65)
Averaged from 67 records on February 13, 2013
WEATHER CONDITIONS BREAKOUT
WIND DIRECTION BREAKOUT
WEATHER BY HOUR - FEBRUARY 13, 2013
[ °C ]   °F
Local TimeTemperatureDewpointHumidityBarometerVisibilityWind DirectionWind SpeedGust SpeedPrecipitationEventsConditions
12:20 AM26.6 °F24.8 °F93 %30.15 in3.1 miNNE (30°)8.1 mphSnowLight Snow
12:50 AM26.6 °F24.8 °F93 %30.18 in5.6 miNE (40°)6.9 mphSnowLight Snow Grains
1:00 AM27.0 °F25.0 °F91 %30.20 in7.0 miNE (40°)6.7 mphSnowSnow Grains
1:20 AM26.6 °F24.8 °F93 %30.18 in6.2 miNE (40°)5.8 mphSnowLight Snow
1:50 AM26.6 °F24.8 °F93 %30.18 in6.2 miNE (40°)5.8 mphSnowLight Snow
2:00 AM27.0 °F25.0 °F89 %30.21 in15.0 miNE (40°)4.5 mphSnowSnow Grains
2:20 AM26.6 °F24.8 °F93 %30.18 in6.2 miNE (40°)4.6 mphOvercast
2:50 AM26.6 °F24.8 °F93 %30.18 in6.2 miNE (40°)4.6 mphOvercast
3:00 AM27.0 °F25.0 °F88 %30.22 in28.0 miNE (40°)4.5 mphClear
3:20 AM26.6 °F24.8 °F93 %30.18 in6.2 miVariable1.2 mphOvercast
3:50 AM26.6 °F24.8 °F93 %30.21 in6.2 miNorth (10°)5.8 mphOvercast
4:20 AM26.6 °F24.8 °F93 %30.21 in6.2 miNorth (10°)8.1 mphOvercast
4:50 AM26.6 °F24.8 °F93 %30.21 in6.2 miNE (50°)5.8 mphOvercast
5:00 AM26.0 °F24.0 °F91 %30.24 in28.0 miNE (40°)6.7 mphClear
5:20 AM26.6 °F24.8 °F93 %30.21 in6.2 miNE (40°)4.6 mphOvercast
5:50 AM26.6 °F24.8 °F93 %30.21 in6.2 miEast (100°)2.3 mphOvercast
6:00 AM26.0 °F24.0 °F90 %30.25 in28.0 miEast (100°)2.2 mphClear
6:20 AM26.6 °F24.8 °F93 %30.24 in6.2 miEast (80°)2.3 mphMostly Cloudy
6:50 AM26.6 °F24.8 °F93 %30.24 in6.2 miNE (50°)2.3 mphMostly Cloudy
7:00 AM26.0 °F24.0 °F90 %30.27 in25.0 miENE (60°)2.2 mphMostly Cloudy
7:20 AM26.6 °F23.0 °F86 %30.24 in6.2 miCalmMostly Cloudy
7:50 AM26.6 °F23.0 °F86 %30.24 in6.2 miNE (40°)1.2 mphMostly Cloudy
8:00 AM26.0 °F24.0 °F87 %30.29 in19.0 miCalmOvercast
8:20 AM26.6 °F23.0 °F86 %30.27 in6.2 miCalmMostly Cloudy
8:50 AM24.8 °F23.0 °F93 %30.27 in6.2 miVariable2.3 mphMostly Cloudy
9:00 AM25.0 °F23.0 °F90 %30.31 in16.0 miCalmOvercast
9:20 AM24.8 °F23.0 °F93 %30.30 in6.2 miESE (120°)2.3 mphMostly Cloudy
9:50 AM26.6 °F24.8 °F93 %30.30 in6.2 miENE (70°)1.2 mphMostly Cloudy
10:20 AM26.6 °F24.8 °F93 %30.30 in6.2 miEast (100°)3.5 mphMostly Cloudy
10:50 AM26.6 °F23.0 °F86 %30.33 in6.2 miEast (100°)3.5 mphSnowLight Snow Grains
11:00 AM27.0 °F24.0 °F84 %30.35 in16.0 miEast (90°)2.2 mphRainLight Drizzle
11:20 AM26.6 °F24.8 °F93 %30.33 in6.2 miNE (50°)2.3 mphOvercast
11:50 AM26.6 °F24.8 °F93 %30.33 in6.2 miENE (60°)3.5 mphMostly Cloudy
12:00 PM27.0 °F24.0 °F85 %30.35 in16.0 miENE (70°)2.2 mphPartly Cloudy
12:20 PM28.4 °F24.8 °F86 %30.33 in6.2 miEast (80°)3.5 mphMostly Cloudy
12:50 PM28.4 °F24.8 °F86 %30.33 in6.2 miEast (80°)3.5 mphMostly Cloudy
1:00 PM29.0 °F25.0 °F79 %30.36 in19.0 miEast (80°)4.5 mph
1:20 PM28.4 °F24.8 °F86 %30.33 in6.2 miENE (60°)2.3 mphScattered Clouds
1:50 PM30.2 °F24.8 °F80 %30.33 in6.2 miCalmScattered Clouds
2:00 PM31.0 °F26.0 °F76 %30.36 in19.0 miCalmPartly Cloudy
2:20 PM32.0 °F26.6 °F80 %30.33 in6.2 miCalmScattered Clouds
2:50 PM28.4 °F24.8 °F86 %30.33 in6.2 miVariable1.2 mphMostly Cloudy
3:00 PM28.0 °F24.0 °F79 %30.37 in16.0 miSW (220°)2.2 mphMostly Cloudy
3:20 PM28.4 °F24.8 °F86 %30.36 in6.2 miVariable1.2 mphMostly Cloudy
3:50 PM28.4 °F23.0 °F80 %30.36 in6.2 miVariable2.3 mphOvercast
4:20 PM28.4 °F23.0 °F80 %30.36 in6.2 miSSE (150°)3.5 mphOvercast
4:50 PM26.6 °F23.0 °F86 %30.36 in6.2 miESE (110°)4.6 mphSnowLight Snow
5:00 PM28.0 °F23.0 °F74 %30.38 in28.0 miEast (90°)4.5 mphSnowLight Snow Showers
5:20 PM26.6 °F23.0 °F86 %30.36 in6.2 miEast (90°)4.6 mphOvercast
5:50 PM26.6 °F23.0 °F86 %30.36 in6.2 miENE (70°)3.5 mphOvercast
6:00 PM27.0 °F23.0 °F78 %30.38 in25.0 miENE (70°)4.5 mphClear
6:20 PM26.6 °F23.0 °F86 %30.36 in6.2 miENE (70°)4.6 mphOvercast
6:50 PM26.6 °F23.0 °F86 %30.36 in6.2 miEast (80°)4.6 mphOvercast
7:00 PM27.0 °F23.0 °F77 %30.38 in25.0 miENE (70°)4.5 mphOvercast
7:20 PM26.6 °F23.0 °F86 %30.36 in6.2 miNE (50°)2.3 mphOvercast
7:50 PM26.6 °F23.0 °F86 %30.36 in6.2 miENE (60°)3.5 mphOvercast
8:00 PM27.0 °F23.0 °F79 %30.39 in22.0 miENE (60°)4.5 mphOvercast
8:20 PM26.6 °F23.0 °F86 %30.36 in6.2 miNE (50°)3.5 mphOvercast
8:50 PM26.6 °F23.0 °F86 %30.36 in6.2 miEast (80°)4.6 mphOvercast
9:00 PM27.0 °F23.0 °F79 %30.39 in19.0 miENE (70°)4.5 mphOvercast
9:20 PM26.6 °F23.0 °F86 %30.36 in6.2 miEast (80°)5.8 mphOvercast
9:50 PM26.6 °F23.0 °F86 %30.36 in6.2 miEast (80°)5.8 mphOvercast
10:20 PM26.6 °F23.0 °F86 %30.36 in6.2 miEast (90°)5.8 mphOvercast
10:50 PM26.6 °F23.0 °F86 %30.36 in6.2 miEast (80°)4.6 mphOvercast
11:00 PM26.0 °F23.0 °F83 %30.39 in22.0 miENE (60°)2.2 mphOvercast
11:20 PM26.6 °F23.0 °F86 %30.36 in6.2 miNE (50°)1.2 mphOvercast
11:50 PM26.6 °F23.0 °F86 %30.36 in6.2 miNNE (30°)1.2 mphOvercast
Hourly data recorded from ESGL, located miles away from Skara, Sweden







STORIES FROM OUR PARTNERS